Location: *
(22.4257°S, 44.3431°W)
Time: 11:49:49
(UTC+00:00)

Daily predictions for brighter satellites

Satellite Brightness Start Highest point End
(mag) Time Altitude Azimuth Time Altitude Azimuth Time Altitude Azimuth
Cosmos 2297 Rocket 2.3 21:37:33 10° N 21:43:06 60° ENE 21:48:42 10° SSE
Cosmos 2227 Rocket 2.3 21:38:06 10° N 21:43:35 55° ENE 21:49:06 10° SSE
Cosmos 2333 Rocket 2.8 21:38:39 10° S 21:43:55 39° ESE 21:49:10 10° NE
SEDSat Delta rocket 4.5 21:37:30 10° W 21:44:04 61° SSW 21:50:00 10° ESE
Cosmos 2219 Rocket 2.8 21:39:35 10° S 21:44:47 38° ESE 21:49:56 10° NE
Intercosmos 24 3.7 21:43:14 10° N 21:47:15 89° ENE 21:50:50 10° S
ATLAS 2AS CENTAUR R/B 4.0 21:43:48 10° SW 21:50:15 42° WNW 21:57:14 10° N
Cosmos 2084 3.6 21:47:35 10° N 21:51:32 45° ENE 21:55:32 10° SE
OAO 2 Rocket 3.5 21:48:59 10° WSW 21:54:10 78° SSE 21:59:08 12° ENE
Cosmos 1707 Rocket 3.6 21:52:08 10° S 21:56:30 87° W 22:00:51 10° N
H-2A R/B (2) 2.7 21:53:58 10° W 21:56:52 39° NNW 22:04:16 11° NE
ADEOS Rocket 2.8 21:52:48 10° NNE 21:58:17 87° ESE 22:03:56 10° SSW
Lacrosse 5 rocket 3.8 21:58:04 10° SSE 21:59:54 12° SE 22:01:43 10° ESE
Cosmos 1315 Rocket 3.4 21:58:09 10° SSW 22:02:08 61° W 22:06:00 10° N
Meteor 2-6 Rocket 4.4 21:57:59 10° S 22:03:55 82° W 22:09:39 10° N
CZ-2C R/B 4.0 22:01:01 10° N 22:05:44 73° WNW 22:10:26 10° SSW
ATLAS 5 CENTAUR R/B 2.9 22:03:00 10° N 22:09:48 49° ENE 22:16:30 10° SE
CZ-2C R/B 4.0 22:09:28 14° ENE 22:11:59 20° ESE 22:15:43 10° SSE
OAO 3 Rocket 3.4 22:07:57 10° SW 22:12:47 63° SSE 22:16:22 18° ENE
NOAA 11 4.3 22:07:57 10° SSE 22:13:16 50° E 22:18:29 10° N
Cosmos 2082 3.7 22:08:24 10° N 22:13:56 62° ENE 22:19:35 10° SSE
CSL-04 Debris 4.1 22:08:29 10° SSE 22:14:00 77° ENE 22:19:30 10° N
GPS 2-14 Rocket1 3.8 22:11:57 10° NW 22:15:05 24° NNE 22:16:24 20° NE
YAOGAN 1 2.7 22:13:58 10° S 22:18:21 77° W 22:22:39 10° NNW
CZ-2D R/B 3.2 22:14:38 10° SSE 22:18:32 64° E 22:22:22 10° N
Meteosat 1 Rocket2 4.2 22:16:13 10° W 22:22:02 48° SSW 22:26:10 10° ESE
Cosmos 1812 2.6 22:18:46 10° S 22:22:39 69° E 22:25:47 15° NNE
SL-4 R/B 1.5 22:20:54 10° SW 22:24:25 85° SE 22:26:15 27° NE
CSL-04 Rocket 3.8 22:21:52 10° S 22:27:26 78° WSW 22:32:51 10° NNW
Cosmos 1634 Rocket 3.9 22:21:31 10° N 22:27:40 75° E 22:33:54 10° S
Fermi 4.0 22:24:23 10° W 22:28:33 68° S 22:31:30 19° ESE
Cosmos 1933 Rocket 4.3 22:25:49 10° NNW 22:30:08 56° W 22:34:32 10° S
SeaSat 1 2.6 22:25:23 10° SE 22:30:11 49° ENE 22:34:56 10° N
Nadezhda 4 Rocket 4.1 22:25:00 10° S 22:31:12 80° W 22:37:25 10° N
COSMOS 2428 3.0 22:30:01 10° SSW 22:35:41 66° WNW 22:40:55 12° N
Cosmos 2142 Rocket 4.5 22:30:28 10° N 22:36:39 66° E 22:42:49 10° SSE
NOSS 0 Rocket 3.9 22:32:04 10° S 22:38:12 64° ESE 22:41:46 26° NE
Cosmos 2237 Rocket 2.6 22:36:55 10° S 22:42:20 44° ESE 22:44:22 32° ENE
DMSP B5D2-2 4.0 22:41:30 22° NNE 22:44:55 77° ESE 22:50:12 10° S
IRS-1A Rocket 4.2 22:40:03 10° SSE 22:45:29 56° ENE 22:49:53 16° N
CZ-3B R/B 4.2 22:34:18 10° WSW 22:47:10 79° S 23:00:44 21° E
Cosmos 2279 Rocket 4.0 22:41:13 11° N 22:47:13 63° E 22:53:27 10° SSE
Cosmos 2251 Rocket 3.5 22:42:45 10° S 22:48:09 78° ESE 22:50:49 31° NNE
Cosmos 1607 4.5 22:42:17 10° NW 22:48:33 64° WSW 22:54:55 10° SSE
STARLINK-67 3.8 22:46:57 10° WSW 22:49:33 35° NW 22:49:36 35° NW
Cosmos 1602 3.8 22:50:56 53° E 22:50:56 53° E 22:54:45 10° SSE
BREEZE-M DEB (TANK) 3.4 22:48:07 10° SSW 22:51:31 46° SE 22:53:57 32° ENE
Cosmos 1624 Rocket 3.9 22:47:13 10° N 22:52:28 77° ENE 22:57:45 10° SSE
Cosmos 2056 Rocket 3.4 22:48:02 10° N 22:53:18 75° ENE 22:58:42 10° SSE
DASH 2.5 22:45:24 10° WSW 22:53:41 83° SSE 22:54:27 53° E
Cosmos 2026 Rocket 3.9 22:51:41 10° S 22:58:04 70° E 23:01:05 33° NNE
Cosmos 1980 3.6 23:02:01 10° SSW 23:07:44 88° ESE 23:09:24 48° NNE
Shenzhou-11 Module 4.4 23:05:49 10° W 23:06:54 16° WNW 23:06:54 16° WNW
DNEPR-1 R/B 3.9 23:06:45 10° NNW 23:11:51 68° WSW 23:16:11 10° SSE
SWIFT 3.0 23:08:42 10° W 23:12:02 44° NW 23:12:02 44° NW
Aureole 1 Rocket 3.8 23:05:52 10° S 23:13:04 72° ESE 23:14:19 55° NE
Cosmos 2180 Rocket 4.4 23:09:59 27° N 23:13:38 85° E 23:20:03 10° S
Cosmos 1703 Rocket 3.4 23:09:35 10° S 23:13:58 83° W 23:14:09 79° NW
RESURS DK-1 3.2 23:15:49 10° SW 23:19:46 43° WNW 23:20:05 42° WNW
Cosmos 1655 Rocket 4.3 23:14:35 10° S 23:20:44 48° E 23:20:44 48° E
MOS 1 4.2 23:15:04 10° SSE 23:20:46 86° WSW 23:23:17 35° NNW
Ariane Rocket 4.1 23:18:32 10° S 23:23:23 43° WSW 23:28:12 10° NW
Delta 2 Rocket 4.2 23:20:30 10° W 23:27:08 61° S 23:29:00 43° SE
ARGOS 3.5 23:23:26 10° SSE 23:27:43 51° SE 23:27:43 51° SE
Delta 128 4.3 23:24:46 10° WSW 23:29:33 54° SSE 23:29:53 53° SSE
Meteor 1-18 Rocket 4.2 23:25:46 10° S 23:31:44 81° E 23:31:59 79° ENE
USA 234 4.3 23:36:48 29° ESE 23:37:40 30° SE 23:43:11 10° SSW
Lacrosse 5 rocket 2.4 23:34:50 10° SW 23:38:26 49° WSW 23:38:26 49° WSW
Cosmos 2263 Rocket 3.6 23:48:11 27° SSE 23:48:11 27° SSE 23:50:42 10° SSE
SPOT 3 Rocket 4.0 23:45:25 10° S 23:49:47 58° SSW 23:49:47 58° SSW
CZ-2C R/B 3.9 23:50:59 29° WNW 23:51:56 32° W 23:56:37 10° SW
H-2A R/B 2.5 23:48:12 10° S 23:53:24 60° WSW 23:53:24 60° WSW
